Location: Unspecified
(50.0077°N, 36.2988°E)
Time: 21:06:19
(UTC+00:00)

ISS - Pass Details

Date: 26 September 2020
Orbit: 417 x 420 km, 51.6° (Epoch: 27 October)

Event Time Altitude Azimuth Distance (km) Brightness Sun altitude
Rises 16:40:59 0° 272° (W) 2,367 1.8 -13.2°
Reaches altitude 10° 16:43:06 10° 275° (W) 1,504 0.5 -13.5°
Maximum altitude 16:46:27 64° 358° (N) 472 -3.5 -14.0°
Enters shadow 16:48:12 25° 73° (ENE) 885 -2.6 -14.3°
